Theta_e
301 301 303 303 303 305 307 307 308 308 309 310 310 308 306 304 304 302 301 301 301 300 299 298 296 295 294 296 296 296 296 300 301 294 294 290 288 287 287 287 287 286 287
298 299 299 299 299 301 302 302 302 303 304 305 303 301 299 298 299 301 301 299 298 295 295 294 293 292 292 291 292 291 291 291 294 292 289 288 287 285 285 285 284 284 285
295 296 295 296 297 298 298 297 298 299 299 298 298 298 296 296 296 296 295 295 294 294 292 291 289 290 289 288 288 288 287 287 288 288 286 287 286 285 284 284 284 284 284
293 294 294 294 295 295 295 295 295 295 295 294 295 295 294 294 293 292 292 291 290 289 288 288 287 287 287 286 285 286 286 286 286 286 284 284 284 283 283 281 282 283 283
292 292 293 293 292 291 290 291 291 291 292 291 290 290 290 290 289 289 289 288 287 286 285 285 285 285 285 286 285 285 286 285 285 284 282 282 281 280 279 280 279 280 283
291 291 291 290 289 289 289 288 288 288 288 287 287 287 287 287 288 288 288 286 285 284 282 283 283 283 283 283 283 283 285 284 283 282 281 280 278 278 279 278 278 277 278
290 290 290 289 288 287 288 287 287 287 287 286 286 286 285 286 287 287 286 284 283 283 282 282 282 283 283 283 283 282 281 281 281 282 280 278 277 277 277 277 276 275 276
290 289 288 287 287 286 285 285 286 286 285 285 285 285 285 286 287 286 284 284 283 283 282 282 281 281 282 282 280 279 279 279 279 278 278 278 278 277 277 276 275 275 276
288 288 287 286 286 285 284 284 285 284 284 284 284 284 283 284 286 285 283 282 281 281 281 281 281 281 281 281 279 277 277 277 278 278 278 277 276 276 275 276 274 273 274
287 287 287 286 285 284 284 283 283 283 282 282 282 283 283 284 286 285 282 281 279 279 279 279 280 281 281 281 278 277 275 275 274 273 274 274 274 274 273 274 274 272 272
284 284 284 284 283 284 284 283 281 281 281 280 280 281 282 283 284 285 283 280 279 278 277 278 279 281 281 280 279 277 277 276 274 272 272 273 273 273 273 273 272 272 271
281 282 283 283 283 283 282 281 280 280 279 279 279 279 280 281 283 284 283 281 281 278 277 278 279 281 280 279 277 278 277 274 272 271 271 271 271 270 270 271 270 271 271
278 278 280 280 281 281 281 280 279 280 279 279 278 278 278 279 281 283 283 282 281 279 278 278 280 279 279 278 278 277 273 271 271 270 270 270 270 269 269 269 269 269 269
276 278 278 277 279 279 280 280 280 279 279 278 278 278 278 278 279 281 281 281 280 279 278 278 278 277 277 275 275 273 271 271 270 270 270 269 268 268 268 268 268 268 267
275 276 277 278 278 278 278 279 279 280 280 279 279 279 277 276 278 280 280 279 279 277 277 276 274 273 271 271 271 269 269 268 268 268 268 267 267 267 267 267 266 266 265
273 275 276 276 277 277 277 277 279 280 280 281 281 279 279 279 280 281 281 280 279 277 272 272 270 269 269 268 268 267 268 267 268 267 267 266 265 265 265 266 265 264 264
271 273 274 273 274 275 275 275 275 277 279 280 280 280 279 278 279 280 280 279 279 276 270 268 269 268 269 269 268 267 266 266 267 266 265 265 264 264 262 264 264 264 263
270 271 272 274 274 274 274 274 275 275 274 276 279 279 279 278 278 280 280 279 275 275 269 269 268 268 268 268 267 266 266 265 264 264 264 264 263 263 262 262 263 262 262
270 272 273 273 273 273 273 274 274 274 275 275 276 278 278 279 279 280 280 276 274 273 268 267 267 267 266 266 266 265 265 264 263 262 263 262 261 261 260 261 261 259 259
269 269 270 272 272 272 272 272 273 273 274 274 272 274 274 275 275 276 277 276 275 270 268 267 265 264 264 264 263 263 262 261 261 261 261 261 261 260 260 260 260 260 260
269 269 269 270 270 271 271 271 272 272 272 271 272 273 274 272 275 276 275 272 271 269 267 267 266 264 263 263 262 261 261 261 261 260 260 260 259 259 259 260 260 259 258
267 268 268 269 269 269 270 270 270 270 270 270 270 268 275 270 269 268 268 267 267 269 269 267 266 264 263 262 261 260 260 260 260 259 259 259 259 258 258 259 258 258 258
266 266 267 267 267 268 268 268 268 268 268 268 268 266 268 271 268 267 267 267 266 265 265 264 264 262 262 261 261 261 260 259 260 259 258 258 258 259 258 258 258 256 256
266 265 265 266 266 266 266 266 267 266 267 266 266 265 266 268 266 266 265 265 264 263 263 261 261 261 260 259 259 259 259 260 259 258 258 258 258 257 257 257 256 256 255
265 264 264 265 265 265 265 265 265 265 265 265 264 264 264 265 263 264 264 263 262 261 260 259 259 259 259 258 258 258 257 258 257 257 257 257 257 256 256 256 256 256 255
263 263 264 264 264 264 264 264 264 264 263 263 263 263 263 262 263 263 262 261 260 259 259 259 258 258 258 258 258 257 257 257 257 255 256 256 255 255 255 254 254 255 255
Wind_Speed
2 1 3 2 1 2 3 4 4 5 6 7 8 8 8 7 7 5 6 7 7 7 6 6 6 7 4 4 3 2 1 1 4 3 4 5 4 5 5 5 5 6 4
2 2 2 2 1 2 3 3 3 4 4 6 7 7 7 7 7 8 9 8 9 9 9 8 8 5 6 5 3 4 3 3 1 6 3 3 4 5 4 5 4 5 4
1 2 1 2 2 3 4 4 5 6 7 7 8 9 8 8 8 7 7 8 7 8 9 9 8 8 7 6 5 5 4 3 3 3 4 2 2 3 3 4 4 5 3
3 4 4 5 5 5 5 5 6 5 6 6 7 7 7 8 8 7 8 9 8 7 8 8 8 8 9 8 6 6 6 5 5 5 4 3 1 3 1 4 3 4 4
6 6 7 5 4 4 4 4 4 5 5 5 6 6 6 7 6 9 9 10 11 10 8 8 6 6 6 6 6 7 7 5 5 5 4 3 2 1 2 2 3 6 3
8 9 8 8 8 9 9 9 8 7 6 6 7 8 9 6 11 14 13 11 12 12 10 9 9 9 10 10 9 6 4 6 6 5 4 4 4 2 1 2 3 4 3
9 9 9 9 9 9 7 8 9 9 8 9 9 9 9 8 16 16 15 10 11 10 12 11 9 6 9 10 12 13 10 7 3 4 6 4 4 2 1 1 2 3 3
9 9 9 9 9 7 8 9 9 9 10 10 10 11 10 8 17 17 15 11 10 11 12 12 11 12 10 11 10 9 8 7 6 4 6 5 4 3 1 2 2 5 5
9 10 9 9 10 10 11 11 11 10 10 10 9 11 11 10 18 19 15 11 11 12 11 11 11 12 15 16 11 11 9 8 8 9 10 9 7 6 4 1 0 3 2
8 9 8 9 11 13 12 11 9 9 9 7 8 10 10 11 20 21 15 7 11 9 10 10 11 11 18 18 12 12 11 10 9 8 7 7 6 6 4 3 1 2 2
9 9 8 9 11 12 10 9 9 9 7 8 8 7 9 10 14 22 20 9 8 9 9 9 9 16 16 16 13 9 9 10 9 6 5 4 4 4 2 1 2 2 1
10 9 9 8 7 7 9 8 9 10 10 10 9 8 7 8 13 21 21 15 14 9 9 8 9 19 16 14 10 11 15 12 6 6 5 5 4 4 3 1 1 2 2
9 8 7 6 7 7 8 9 8 10 10 10 10 10 9 8 8 21 21 19 17 9 8 12 17 16 17 13 13 14 12 6 6 6 6 5 4 3 2 2 2 3 4
9 8 7 6 7 6 7 7 8 9 9 9 10 10 9 9 10 10 10 11 15 10 13 11 13 14 12 9 9 9 5 5 6 5 5 4 4 3 3 1 1 3 3
9 8 8 7 7 8 9 8 8 9 11 9 10 9 11 11 12 16 15 11 10 12 11 9 9 8 9 8 7 7 6 5 6 5 5 5 4 3 2 2 1 1 3
9 7 6 6 6 7 8 8 16 17 15 20 18 13 8 13 19 22 22 20 20 22 8 9 9 8 9 9 9 8 7 8 7 6 5 5 4 4 3 3 3 4 4
9 9 7 7 7 7 7 8 9 9 15 20 19 17 18 14 21 25 24 22 23 21 7 8 9 9 9 8 8 8 8 7 7 6 5 5 4 4 4 4 4 4 4
9 10 8 7 7 7 8 8 7 8 8 8 15 14 18 17 20 25 24 21 12 15 7 8 9 9 8 8 8 8 7 7 7 6 5 5 4 4 5 5 5 5 4
8 7 7 7 7 8 7 8 8 9 8 7 6 12 15 21 25 28 29 12 12 10 9 8 7 7 7 7 7 7 7 6 6 6 5 5 5 5 6 5 5 5 4
8 10 9 8 7 8 8 8 8 9 9 8 7 8 6 8 11 13 14 12 9 8 8 8 7 6 7 7 7 7 6 7 7 6 6 6 6 6 6 6 5 4 5
7 8 9 8 8 8 8 8 8 8 8 8 8 6 15 10 10 9 8 4 7 7 7 7 7 7 6 6 6 7 7 6 6 6 6 6 7 7 6 5 4 5 5
7 8 8 8 8 8 8 8 8 9 9 8 7 6 20 6 4 4 5 5 4 4 5 7 7 7 7 8 8 8 8 8 8 7 7 7 7 6 5 5 5 5 5
8 9 9 8 8 9 8 9 8 9 9 9 8 7 8 8 8 7 6 5 5 5 4 4 6 6 6 7 7 7 8 8 8 7 8 8 7 6 6 6 6 5 5
8 9 9 9 8 8 9 9 8 10 9 8 8 8 8 8 7 8 6 5 4 4 5 6 6 7 7 7 6 7 7 6 6 7 9 7 7 6 6 6 6 7 6
8 9 9 9 8 8 8 9 9 9 8 8 7 7 7 8 7 6 6 5 6 6 7 7 6 9 11 11 10 11 10 12 9 9 7 8 8 8 7 6 7 6 7
8 9 8 8 8 8 8 8 9 8 8 8 7 7 7 7 7 7 7 7 6 7 8 7 8 12 11 11 13 12 12 13 12 13 9 8 7 7 7 9 10 7 7
Wind_Direction
77 113 152 139 158 171 191 183 185 173 181 180 173 168 169 169 174 157 169 166 162 162 159 166 160 159 151 148 146 124 145 231 215 116 108 119 105 47 38 32 25 23 33
45 37 33 81 121 158 162 161 154 156 164 168 164 162 162 166 177 182 181 186 177 168 166 164 159 152 143 133 131 120 110 64 145 158 120 115 92 47 37 27 13 12 357
170 172 210 216 208 186 175 168 174 173 175 173 175 177 176 177 181 185 178 172 173 166 164 161 153 159 151 147 147 140 123 107 96 137 124 94 87 42 13 11 357 355 359
254 231 221 224 222 219 209 203 196 194 186 187 190 184 183 183 181 170 165 158 149 148 149 151 159 164 159 156 147 146 143 135 127 124 115 128 102 74 0 2 341 347 341
233 237 242 239 237 238 232 234 229 209 203 199 188 185 180 184 177 172 167 161 153 147 142 136 150 138 122 141 158 161 155 148 149 148 141 150 134 128 32 2 319 326 344
241 238 227 220 211 211 209 205 205 209 199 188 195 194 193 193 183 178 168 163 159 155 150 143 139 138 135 132 121 120 144 166 164 162 155 160 143 137 91 9 354 349 337
240 249 247 241 235 232 229 216 210 208 202 204 198 197 202 201 183 176 168 164 159 160 157 156 152 144 148 138 127 118 106 95 96 160 151 142 145 103 318 62 13 308 284
258 246 232 229 239 232 226 228 226 214 210 207 204 200 195 196 183 178 171 164 163 165 166 167 164 165 167 158 153 147 136 125 119 111 117 131 125 128 95 48 347 306 285
262 257 255 234 225 215 220 216 211 213 214 212 208 199 195 187 184 181 175 167 167 168 170 171 170 171 171 174 168 161 154 132 113 110 107 109 110 92 51 159 6 308 267
289 272 256 236 232 226 218 210 205 209 214 200 199 200 199 186 186 186 185 171 168 165 167 170 180 174 175 181 179 171 169 165 153 143 137 124 129 108 74 48 3 292 349
304 287 266 242 235 234 227 207 199 197 196 199 196 191 187 188 187 190 191 186 173 169 171 173 177 178 178 185 189 183 173 148 146 143 140 137 139 136 125 80 14 339 350
303 293 278 252 240 241 223 209 199 192 192 193 190 189 193 191 194 195 196 199 184 175 175 174 171 176 178 179 175 161 144 136 144 151 158 164 169 164 148 129 15 309 314
307 292 280 269 254 231 218 216 210 205 205 197 193 194 191 189 194 197 197 200 197 186 177 171 169 176 176 166 175 153 140 156 158 164 172 171 168 144 152 171 212 293 277
298 297 292 269 258 235 231 220 215 211 217 216 208 204 192 188 192 189 189 191 199 182 172 169 164 166 161 169 159 156 178 176 173 173 167 154 152 169 179 178 253 331 324
302 297 289 277 263 250 238 230 227 227 218 213 216 211 198 199 198 191 183 179 174 170 154 159 159 164 171 170 176 184 174 167 174 170 166 170 166 171 192 174 264 292 264
297 290 283 279 267 257 257 252 244 240 236 235 231 218 213 223 201 192 188 185 178 160 158 169 171 179 182 187 188 184 188 190 183 172 173 170 176 182 193 197 226 237 257
278 283 279 263 259 256 247 248 253 239 237 234 228 224 218 210 200 196 191 188 183 168 186 183 186 186 191 187 184 188 190 191 171 176 180 178 173 184 178 218 221 234 244
275 268 267 268 261 254 251 248 242 234 229 216 223 217 211 210 207 199 196 189 195 184 196 186 189 185 186 186 184 187 182 171 177 174 182 183 180 203 216 218 221 230 241
282 276 273 268 263 261 255 245 240 234 226 217 199 211 204 204 202 201 198 200 193 188 186 189 187 181 180 179 175 173 185 185 179 174 177 186 196 209 224 225 231 230 252
272 265 265 273 271 262 254 247 241 233 233 223 208 212 170 193 209 204 205 194 197 185 173 183 179 179 180 179 176 176 177 179 183 182 186 196 203 212 222 219 227 235 235
277 274 265 264 264 261 255 251 247 241 234 223 222 194 191 200 213 207 194 171 179 166 163 180 179 183 184 181 178 179 188 187 191 191 201 203 201 207 220 226 229 226 244
270 271 267 263 262 256 254 250 248 243 237 227 213 214 214 196 198 171 156 168 169 163 174 184 185 188 188 190 187 185 189 192 196 193 201 205 205 207 210 218 228 238 244
263 265 263 261 259 259 255 250 244 242 239 230 216 205 218 211 203 198 189 175 166 174 174 189 195 190 189 192 191 191 190 199 197 187 196 201 203 206 204 218 223 233 240
259 261 261 260 258 253 252 250 244 240 237 228 218 212 209 217 193 202 189 172 168 182 185 195 207 211 204 204 195 196 203 196 180 191 197 200 202 193 208 218 225 233 246
252 253 256 257 254 253 253 248 246 239 234 227 220 213 211 203 179 185 192 183 183 191 201 199 206 216 215 207 208 207 202 200 189 191 191 203 208 198 208 220 224 231 232
254 249 249 250 251 251 248 248 245 242 237 232 228 219 213 214 214 193 188 191 195 202 205 203 208 212 212 217 218 215 207 202 199 196 195 199 201 206 211 220 223 228 229